O3B FM14 (43233 NORAD) Tracking and Keplerian Element Data

This shows tracking and keplerian element data for the satellite.

Feedback or suggestion? Click here.




ElementValue
Catalog43233
NameO3B FM14
Epoch Orbit650
Epoch Day198.37224288
Epoch Year2018
RAAN356.73
Inclination0.0464
Eccentricity0.0002653
Argument of Perigee125.3012
Mean Anonmoly237.991
Mean Motion5.0011759
Decay Rate-2.7E-07
L11 43233U 18024C 18198.37224288 -.00000027 00000-0 00000-0 0 9993
L22 43233 0.0464 356.7300 0002653 125.3012 237.9910 5.00117590 6505

Live tracking and technical data element details for O3B FM14 (NORAD 43233). O3B FM14 can be tracked NOW for your location showing map with azimuth and elevation plus other details from your city location.

Track the satellite on the map from your city or location and see movement details for azimuth, elevation, latitude, longitude, range, height, and movement on the map or in text.







IsCatalogInMostPopularTable: catalog: 43233, numindb: 41
Update: records affected: 1



GetName: 43233 O3B FM14

Hit Count: updated at: Thu, 19 Jul 2018 21:28:12 GMT